Regional Weather Roundup
Issued by NWS

Home | Current Version | Previous Version | Text Only | Print | Product List | Glossary On
Versions: 1 2 3 4 5 6 7 8 9 10 11 12 13 14 15 16 17 18 19 20 21 22 23 24 25 26 27 28
000
ASUS45 KREV 221210
RWRNV
NEVADA REGIONAL WEATHER ROUNDUP
NATIONAL WEATHER SERVICE RENO NV
500 AM PDT FRI SEP 22 2017

NOTE: "FAIR" INDICATES FEW OR NO CLOUDS BELOW 12,000 FEET WITH NO
SIGNIFICANT WEATHER AND/OR OBSTRUCTIONS TO VISIBILITY.

NVZ001-003-004-221300-
WESTERN NEVADA

CITY           SKY/WX    TMP DP  RH WIND       PRES   REMARKS
RENO           CLOUDY    43  35  73 CALM      29.93S
6HR MIN TEMP:  43; 6HR MAX TEMP:  46;

CARSON CITY    CLOUDY    39  32  75 CALM      29.94S
MINDEN         FAIR      37  34  87 CALM      29.94R
FALLON         MOCLDY    39  35  86 SE3       29.91R
6HR MIN TEMP:  38; 6HR MAX TEMP:  42;

LOVELOCK       PTCLDY    35  31  85 CALM      29.91R
6HR MIN TEMP:  34; 6HR MAX TEMP:  43;

HAWTHORNE      PTCLDY    43  39  87 CALM      29.91R
$$

NVZ002-CAZ072-073-221300-
NORTHERN AND CENTRAL SIERRA

CITY           SKY/WX    TMP DP  RH WIND       PRES   REMARKS
S. LAKE TAHOE  CLOUDY    32  31  96 CALM      29.92S
6HR MIN TEMP:  32; 6HR MAX TEMP:  35; 6HR PCP: TRACE;

TRUCKEE        LGT SNOW  32  32 100 CALM      29.95S
SQUAW VLY 8000   N/A     28  28 100 NE1         N/A
SUSANVILLE     PTCLDY    32  28  86 CALM      29.93S
BLUE CANYON    CLOUDY    36  32  85 NE7       29.94R
MAMMOTH LAKES  MOCLDY    26  23  86 CALM      29.91S
6HR MIN TEMP:  26; 6HR MAX TEMP:  32;

BRIDGEPORT     FAIR      28  24  85 CALM      29.90S
$$

NVZ030-031-036-221300-
NORTHERN NEVADA

CITY           SKY/WX    TMP DP  RH WIND       PRES   REMARKS
ELKO           CLOUDY    39  36  89 SW5       29.87R
6HR MIN TEMP:  38; 6HR MAX TEMP:  39; 6HR PCP:  0.04;

WINNEMUCCA     CLOUDY    31  30  96 SE3       29.91R
6HR MIN TEMP:  31; 6HR MAX TEMP:  37;

WENDOVER       LGT RAIN  41  36  82 NW10      29.88R
$$

NVZ035-037-221300-
CENTRAL NEVADA

CITY           SKY/WX    TMP DP  RH WIND       PRES   REMARKS
ELY            CLOUDY    32  31  96 E3        29.88R
6HR MIN TEMP:  31; 6HR MAX TEMP:  33;

EUREKA           N/A     33  31  92 S3        29.88S
6HR MIN TEMP:  33; 6HR MAX TEMP:  36; 6HR PCP:  0.07;

$$

NVZ013-014-221300-
SOUTH CENTRAL NEVADA

CITY           SKY/WX    TMP DP  RH WIND       PRES   REMARKS
TONOPAH        PTCLDY    38  50 100 N14       29.89S
6HR MIN TEMP:  36; 6HR MAX TEMP:  40;

$$

NVZ017-020-022-221300-
SOUTHERN NEVADA

CITY           SKY/WX    TMP DP  RH WIND       PRES   REMARKS
LAS VEGAS      CLEAR     59  26  28 VRB3      29.78R
6HR MIN TEMP:  59; 6HR MAX TEMP:  66;

N. LAS VEGAS   CLEAR     58  32  37 N13       29.77S
6HR MIN TEMP:  58; 6HR MAX TEMP:  67;

NELLIS AFB     CLEAR     57  34  41 CALM      29.77R
6HR MIN TEMP:  57; 6HR MAX TEMP:  68;

HENDERSON      CLEAR     53  25  33 S6        29.81R
6HR MIN TEMP:  52; 6HR MAX TEMP:  65;

MERCURY        CLEAR     51  31  46 NE6       29.82S
6HR MIN TEMP:  49; 6HR MAX TEMP:  55;

$$




USA.gov is the U.S. government's official web portal to all federal, state and local government web resources and services.